Home > Weather > Las Cruces > Past weeks

Flag for USA Weather for the Past 2 Weeks in Las Cruces, New Mexico, USA

Now
57 °F

Passing clouds.


Feels Like: 54 °F
Forecast: 48 / 71 °F
Wind: 14 mph from West

Location: Las Cruces International

Current Time: Apr 29, 2016 at 3:02:47 AM

Latest Report: Apr 29, 2016 at 2:15 AM


Visibility: 10 mi

Pressure: 29.84 "Hg (25.91 "Hg at 1187m altitude)

Humidity: 31%

Dew Point: 27 °F

Location of Las CrucesLocation

Historic Weather in Las Cruces — Graph

°F

Las Cruces Temperature Yesterday

Maximum temperature yesterday: 79 °F (at 4:15 PM)
Minimum temperature yesterday: 52 °F (at 3:15 AM)
Average temperature yesterday: 68 °F

High & Low Weather Summary for the Past Weeks

 TemperatureHumidityPressure
High85 °F (Apr 23, 5:15 PM)86% (Apr 23, 3:15 AM)30.19 "Hg (Apr 23, 3:15 AM)
Low39 °F (Apr 17, 4:55 AM)6% (Apr 20, 3:55 PM)29.63 "Hg (Apr 15, 6:15 PM)
Average64 °F26%29.96 "Hg
* Reported Apr 14 2:15 AM — Apr 29 2:15 AM, Las Cruces, Weather by CustomWeather, © 2016

Note: Actual official high and low records may vary slightly from our data, if they occured in-between our weather recording intervals... More about our weather records

Advertising

Las Cruces Weather History for the Previous 24 Hours

Scroll right to see more
 ConditionsComfort  
Time TempWeatherWind HumidityBarometerVisibility
2:15 AM
Fri, Apr 29
57 °FPassing clouds.14 mph31%29.84 "Hg10 mi
1:35 AM60 °FPassing clouds.15 mph29%29.83 "Hg10 mi
1:15 AM61 °FOvercast.23 mph28%29.82 "Hg10 mi
12:55 AM62 °FPassing clouds.20 mph26%29.82 "Hg10 mi
12:15 AM59 °FPassing clouds.12 mph26%29.80 "Hg10 mi
11:55 PM
Thu, Apr 28
59 °FPassing clouds.12 mph25%29.80 "Hg10 mi
11:15 PM65 °FClear.22 mph24%29.76 "Hg10 mi
10:55 PM66 °FClear.23 mph23%29.75 "Hg10 mi
10:15 PM66 °FClear.21 mph19%29.75 "Hg10 mi
9:55 PM67 °FClear.15 mph17%29.74 "Hg10 mi
9:15 PM68 °FClear.18 mph16%29.73 "Hg10 mi
8:35 PM69 °FSunny.12 mph14%29.73 "Hg10 mi
8:15 PM70 °FSunny.10 mph14%29.73 "Hg10 mi
7:55 PM71 °FSunny.13 mph13%29.72 "Hg10 mi
7:15 PM74 °FSunny.22 mph12%29.72 "Hg10 mi
6:55 PM75 °FSunny.20 mph13%29.72 "Hg10 mi
6:15 PM77 °FSunny.21 mph11%29.72 "Hg10 mi
5:55 PM78 °FSunny.21 mph11%29.72 "Hg10 mi
5:15 PM78 °FScattered clouds.22 mph11%29.72 "Hg10 mi
4:15 PM79 °FSunny.15 mph10%29.73 "Hg10 mi
3:55 PM78 °FSunny.16 mph10%29.74 "Hg10 mi
3:15 PM77 °FSunny.10 mph10%29.76 "Hg10 mi
2:55 PM77 °FSunny.17 mph11%29.77 "Hg10 mi
2:35 PM77 °FSunny.23 mph11%29.78 "Hg10 mi
2:15 PM76 °FSunny.24 mph12%29.79 "Hg10 mi
1:55 PM76 °FSunny.18 mph12%29.79 "Hg10 mi
1:35 PM76 °FSunny.15 mph12%29.80 "Hg10 mi
1:15 PM76 °FSunny.21 mph12%29.80 "Hg10 mi
12:55 PM75 °FSunny.18 mph11%29.80 "Hg10 mi
12:35 PM74 °FSunny.17 mph12%29.81 "Hg10 mi
12:15 PM73 °FSunny.17 mph11%29.82 "Hg10 mi
11:55 AM73 °FSunny.20 mph11%29.83 "Hg10 mi
11:35 AM72 °FSunny.17 mph11%29.83 "Hg10 mi
11:15 AM72 °FSunny.20 mph11%29.84 "Hg10 mi
10:55 AM71 °FSunny.21 mph11%29.84 "Hg10 mi
10:35 AM71 °FSunny.18 mph12%29.84 "Hg10 mi
10:15 AM69 °FSunny.17 mph13%29.84 "Hg10 mi
9:55 AM69 °FSunny.16 mph14%29.84 "Hg10 mi
9:35 AM68 °FSunny.14 mph15%29.84 "Hg10 mi
9:15 AM67 °FSunny.14 mph15%29.84 "Hg10 mi
8:55 AM66 °FSunny.14 mph16%29.85 "Hg10 mi
8:35 AM64 °FSunny.8 mph19%29.84 "Hg10 mi
8:15 AM62 °FSunny.7 mph21%29.85 "Hg10 mi
7:55 AM60 °FSunny.8 mph22%29.84 "Hg10 mi
7:15 AM58 °FClear.10 mph23%29.83 "Hg10 mi
6:15 AM54 °FClear.8 mph25%29.81 "Hg10 mi
5:15 AM60 °FClear.12 mph19%29.81 "Hg10 mi
4:55 AM56 °FClear.6 mph20%29.80 "Hg10 mi
4:35 AM53 °FClear.5 mph23%29.80 "Hg10 mi
3:55 AM53 °FClear.No wind23%29.79 "Hg10 mi
3:15 AM52 °FClear.3 mph25%29.79 "Hg10 mi
Weather by CustomWeather, © 2016

See weather overviewHow to use our weather pages